Time,TemperatureF,DewpointF,PressureIn,WindDirection,WindDirectionDegrees,WindSpeedMPH,WindSpeedGustMPH,Humidity,HourlyPrecipIn,Conditions,Clouds,dailyrainin,SoftwareType,DateUTC
2013-09-03 00:01:00,63.1,35.1,27.58,North,0,0.0,0.0,35,0.00,,---,0.00,VWS V14.01,2013-09-03 07:01:00,
2013-09-03 00:06:00,63.1,35.1,27.58,North,350,0.0,0.0,35,0.00,,---,0.00,VWS V14.01,2013-09-03 07:06:00,
2013-09-03 00:11:00,63.1,35.1,27.58,NNE,12,0.0,0.0,35,0.00,,---,0.00,VWS V14.01,2013-09-03 07:11:00,
2013-09-03 00:16:00,63.0,34.9,27.58,North,357,0.0,0.0,35,0.00,,---,0.00,VWS V14.01,2013-09-03 07:16:00,
2013-09-03 00:21:00,62.8,34.8,27.58,North,357,0.0,0.0,35,0.00,,---,0.00,VWS V14.01,2013-09-03 07:21:00,
2013-09-03 00:26:00,62.6,34.6,27.58,North,357,0.0,0.0,35,0.00,,---,0.00,VWS V14.01,2013-09-03 07:26:00,
2013-09-03 00:31:00,62.4,35.1,27.58,North,357,0.0,0.0,36,0.00,,---,0.00,VWS V14.01,2013-09-03 07:31:00,
2013-09-03 00:36:00,62.2,35.0,27.58,North,357,0.0,0.0,36,0.00,,---,0.00,VWS V14.01,2013-09-03 07:36:00,
2013-09-03 00:41:00,62.2,35.0,27.58,North,357,0.0,0.0,36,0.00,,---,0.00,VWS V14.01,2013-09-03 07:41:00,
2013-09-03 00:46:00,62.2,35.0,27.55,North,357,0.0,0.0,36,0.00,,---,0.00,VWS V14.01,2013-09-03 07:46:00,
2013-09-03 00:51:00,62.6,34.6,27.55,North,357,0.0,0.0,35,0.00,,---,0.00,VWS V14.01,2013-09-03 07:51:00,
2013-09-03 00:56:00,62.4,35.1,27.55,North,353,0.0,0.0,36,0.00,,---,0.00,VWS V14.01,2013-09-03 07:56:00,
2013-09-03 01:01:00,62.4,34.4,27.58,North,353,0.0,0.0,35,0.00,,---,0.00,VWS V14.01,2013-09-03 08:01:00,
2013-09-03 01:06:00,62.6,33.9,27.58,North,350,0.0,0.0,34,0.00,,---,0.00,VWS V14.01,2013-09-03 08:06:00,
2013-09-03 01:11:00,62.8,34.0,27.58,North,357,0.0,0.0,34,0.00,,---,0.00,VWS V14.01,2013-09-03 08:11:00,
2013-09-03 01:16:00,62.8,34.0,27.58,North,353,0.0,0.0,34,0.00,,---,0.00,VWS V14.01,2013-09-03 08:16:00,
2013-09-03 01:21:00,62.8,34.0,27.58,NNW,342,0.0,0.0,34,0.00,,---,0.00,VWS V14.01,2013-09-03 08:21:00,
2013-09-03 01:26:00,63.0,34.2,27.58,North,0,0.0,0.0,34,0.00,,---,0.00,VWS V14.01,2013-09-03 08:26:00,
2013-09-03 01:31:00,63.0,34.2,27.58,North,357,0.0,0.0,34,0.00,,---,0.00,VWS V14.01,2013-09-03 08:31:00,
2013-09-03 01:36:00,63.0,34.2,27.58,NNE,28,0.0,0.0,34,0.00,,---,0.00,VWS V14.01,2013-09-03 08:36:00,
2013-09-03 01:41:00,62.8,34.0,27.58,NE,39,0.0,0.0,34,0.00,,---,0.00,VWS V14.01,2013-09-03 08:41:00,
2013-09-03 01:46:00,62.8,34.0,27.58,NNW,344,0.0,0.0,34,0.00,,---,0.00,VWS V14.01,2013-09-03 08:46:00,
2013-09-03 01:51:00,62.8,34.0,27.58,NNW,336,0.0,0.0,34,0.00,,---,0.00,VWS V14.01,2013-09-03 08:51:00,
2013-09-03 01:56:00,62.8,34.0,27.58,NNW,344,0.0,0.0,34,0.00,,---,0.00,VWS V14.01,2013-09-03 08:56:00,
2013-09-03 02:01:00,62.8,34.0,27.58,North,350,0.0,0.0,34,0.00,,---,0.00,VWS V14.01,2013-09-03 09:01:00,
2013-09-03 02:06:00,62.8,34.0,27.58,North,0,0.0,0.0,34,0.00,,---,0.00,VWS V14.01,2013-09-03 09:06:00,
2013-09-03 02:11:00,62.8,34.0,27.58,North,349,0.0,0.0,34,0.00,,---,0.00,VWS V14.01,2013-09-03 09:11:00,
2013-09-03 02:15:00,62.8,34.0,27.58,NNW,341,0.0,0.0,34,0.00,,---,0.00,VWS V14.01,2013-09-03 09:15:00,
2013-09-03 02:20:00,62.8,34.0,27.58,North,0,0.0,0.0,34,0.00,,---,0.00,VWS V14.01,2013-09-03 09:20:00,
2013-09-03 02:25:00,62.8,34.0,27.58,NNW,342,0.0,0.0,34,0.00,,---,0.00,VWS V14.01,2013-09-03 09:25:00,
2013-09-03 02:30:00,63.0,34.2,27.58,North,353,0.0,0.0,34,0.00,,---,0.00,VWS V14.01,2013-09-03 09:30:00,
2013-09-03 02:35:00,62.8,33.3,27.58,North,353,0.0,0.0,33,0.00,,---,0.00,VWS V14.01,2013-09-03 09:35:00,
2013-09-03 02:40:00,62.6,33.9,27.58,North,353,0.0,0.0,34,0.00,,---,0.00,VWS V14.01,2013-09-03 09:40:00,
2013-09-03 02:45:00,62.6,33.9,27.58,North,353,0.0,0.0,34,0.00,,---,0.00,VWS V14.01,2013-09-03 09:45:00,
2013-09-03 02:50:00,62.4,33.7,27.58,North,353,0.0,0.0,34,0.00,,---,0.00,VWS V14.01,2013-09-03 09:50:00,
2013-09-03 02:55:00,62.4,33.7,27.58,North,353,0.0,0.0,34,0.00,,---,0.00,VWS V14.01,2013-09-03 09:55:00,
2013-09-03 03:00:00,62.2,33.5,27.58,North,0,0.0,0.0,34,0.00,,---,0.00,VWS V14.01,2013-09-03 10:00:00,
2013-09-03 03:05:00,62.2,33.5,27.58,North,0,0.0,0.0,34,0.00,,---,0.00,VWS V14.01,2013-09-03 10:05:00,
2013-09-03 03:10:00,62.1,33.4,27.58,North,0,0.0,0.0,34,0.00,,---,0.00,VWS V14.01,2013-09-03 10:10:00,
2013-09-03 03:15:00,61.9,33.2,27.58,North,0,0.0,0.0,34,0.00,,---,0.00,VWS V14.01,2013-09-03 10:15:00,
2013-09-03 03:20:00,61.7,33.8,27.58,North,0,0.0,0.0,35,0.00,,---,0.00,VWS V14.01,2013-09-03 10:20:00,
2013-09-03 03:25:00,61.5,33.6,27.58,North,0,0.0,0.0,35,0.00,,---,0.00,VWS V14.01,2013-09-03 10:25:00,
2013-09-03 03:30:00,61.2,34.0,27.58,West,265,0.0,0.0,36,0.00,,---,0.00,VWS V14.01,2013-09-03 10:30:00,
2013-09-03 03:35:00,61.3,34.2,27.58,West,265,0.0,0.0,36,0.00,,---,0.00,VWS V14.01,2013-09-03 10:35:00,
2013-09-03 03:40:00,61.5,34.3,27.58,NW,315,0.0,0.0,36,0.00,,---,0.00,VWS V14.01,2013-09-03 10:40:00,
2013-09-03 03:45:00,61.9,35.3,27.58,NNE,12,0.0,0.0,37,0.00,,---,0.00,VWS V14.01,2013-09-03 10:45:00,
2013-09-03 03:50:00,62.1,35.5,27.58,NNW,345,0.0,0.0,37,0.00,,---,0.00,VWS V14.01,2013-09-03 10:50:00,
2013-09-03 03:55:00,62.2,35.0,27.58,North,349,0.0,0.0,36,0.00,,---,0.00,VWS V14.01,2013-09-03 10:55:00,
2013-09-03 04:00:00,62.2,35.0,27.58,East,93,0.0,0.0,36,0.00,,---,0.00,VWS V14.01,2013-09-03 11:00:00,
2013-09-03 04:05:00,62.1,34.8,27.58,ENE,74,0.0,0.0,36,0.00,,---,0.00,VWS V14.01,2013-09-03 11:05:00,
2013-09-03 04:10:00,61.9,34.7,27.58,ENE,74,0.0,0.0,36,0.00,,---,0.00,VWS V14.01,2013-09-03 11:10:00,
2013-09-03 04:15:00,61.9,34.7,27.58,ENE,74,0.0,0.0,36,0.00,,---,0.00,VWS V14.01,2013-09-03 11:15:00,
2013-09-03 04:20:00,61.9,34.7,27.58,ENE,74,0.0,0.0,36,0.00,,---,0.00,VWS V14.01,2013-09-03 11:20:00,
2013-09-03 04:25:00,61.9,34.7,27.58,ENE,74,0.0,0.0,36,0.00,,---,0.00,VWS V14.01,2013-09-03 11:25:00,
2013-09-03 04:30:00,61.9,34.7,27.58,ENE,75,0.0,0.0,36,0.00,,---,0.00,VWS V14.01,2013-09-03 11:30:00,
2013-09-03 04:35:00,61.9,34.7,27.58,ESE,121,0.0,0.0,36,0.00,,---,0.00,VWS V14.01,2013-09-03 11:35:00,
2013-09-03 04:40:00,61.9,34.7,27.58,North,357,0.0,0.0,36,0.00,,---,0.00,VWS V14.01,2013-09-03 11:40:00,
2013-09-03 04:45:00,61.9,34.7,27.58,North,357,0.0,0.0,36,0.00,,---,0.00,VWS V14.01,2013-09-03 11:45:00,
2013-09-03 04:50:00,62.2,35.0,27.58,WNW,299,0.0,0.0,36,0.00,,---,0.00,VWS V14.01,2013-09-03 11:50:00,
2013-09-03 04:55:00,63.0,34.9,27.58,NW,316,0.0,0.0,35,0.00,,---,0.00,VWS V14.01,2013-09-03 11:55:00,
2013-09-03 05:00:00,63.0,34.2,27.58,West,273,0.0,0.0,34,0.00,,---,0.00,VWS V14.01,2013-09-03 12:00:00,
2013-09-03 05:05:00,63.0,34.2,27.58,WSW,245,0.0,0.0,34,0.00,,---,0.00,VWS V14.01,2013-09-03 12:05:00,
2013-09-03 05:10:00,62.8,34.0,27.58,NNW,327,0.0,0.0,34,0.00,,---,0.00,VWS V14.01,2013-09-03 12:10:00,
2013-09-03 05:15:00,62.8,34.0,27.58,NNW,327,0.0,0.0,34,0.00,,---,0.00,VWS V14.01,2013-09-03 12:15:00,
2013-09-03 05:20:00,62.8,34.0,27.58,North,0,0.0,0.0,34,0.00,,---,0.00,VWS V14.01,2013-09-03 12:20:00,
2013-09-03 05:25:00,63.0,34.2,27.58,NNE,28,0.0,0.0,34,0.00,,---,0.00,VWS V14.01,2013-09-03 12:25:00,
2013-09-03 05:30:00,63.1,34.3,27.58,NNE,28,0.0,0.0,34,0.00,,---,0.00,VWS V14.01,2013-09-03 12:30:00,
2013-09-03 05:35:00,63.0,34.2,27.58,NNE,28,0.0,0.0,34,0.00,,---,0.00,VWS V14.01,2013-09-03 12:35:00,
2013-09-03 05:40:00,62.4,33.7,27.58,NNE,28,0.0,0.0,34,0.00,,---,0.00,VWS V14.01,2013-09-03 12:40:00,
2013-09-03 05:45:00,62.2,33.5,27.58,NNE,28,0.0,0.0,34,0.00,,---,0.00,VWS V14.01,2013-09-03 12:45:00,
2013-09-03 05:50:00,62.4,33.7,27.58,NNE,28,0.0,0.0,34,0.00,,---,0.00,VWS V14.01,2013-09-03 12:50:00,
2013-09-03 05:55:00,62.6,33.9,27.58,NNE,14,0.0,0.0,34,0.00,,---,0.00,VWS V14.01,2013-09-03 12:55:00,
2013-09-03 06:00:00,63.0,34.2,27.58,ENE,70,0.0,0.0,34,0.00,,---,0.00,VWS V14.01,2013-09-03 13:00:00,
2013-09-03 06:05:00,63.0,34.2,27.58,ENE,70,0.0,0.0,34,0.00,,---,0.00,VWS V14.01,2013-09-03 13:05:00,
2013-09-03 06:10:00,62.6,33.9,27.58,ENE,70,0.0,0.0,34,0.00,,---,0.00,VWS V14.01,2013-09-03 13:10:00,
2013-09-03 06:15:00,62.2,33.5,27.58,ENE,70,0.0,0.0,34,0.00,,---,0.00,VWS V14.01,2013-09-03 13:15:00,
2013-09-03 06:20:00,61.9,33.2,27.58,ENE,70,0.0,0.0,34,0.00,,---,0.00,VWS V14.01,2013-09-03 13:20:00,
2013-09-03 06:25:00,61.7,33.1,27.58,ENE,70,0.0,0.0,34,0.00,,---,0.00,VWS V14.01,2013-09-03 13:25:00,
2013-09-03 06:30:00,61.7,33.8,27.58,ENE,70,0.0,0.0,35,0.00,,---,0.00,VWS V14.01,2013-09-03 13:30:00,
2013-09-03 06:35:00,61.9,34.0,27.58,ENE,70,0.0,0.0,35,0.00,,---,0.00,VWS V14.01,2013-09-03 13:35:00,
2013-09-03 06:40:00,62.2,34.3,27.58,NNW,338,0.0,0.0,35,0.00,,---,0.00,VWS V14.01,2013-09-03 13:40:00,
2013-09-03 06:45:00,62.6,34.6,27.58,ENE,66,0.0,0.0,35,0.00,,---,0.00,VWS V14.01,2013-09-03 13:45:00,
2013-09-03 06:50:00,62.6,33.9,27.58,NNE,28,0.0,0.0,34,0.00,,---,0.00,VWS V14.01,2013-09-03 13:50:00,
2013-09-03 06:55:00,62.8,34.0,27.58,North,0,0.0,0.0,34,0.00,,---,0.00,VWS V14.01,2013-09-03 13:55:00,
2013-09-03 07:00:00,63.0,34.2,27.58,North,357,0.0,0.0,34,0.00,,---,0.00,VWS V14.01,2013-09-03 14:00:00,
2013-09-03 07:05:00,63.1,34.3,27.58,NNW,341,0.0,0.0,34,0.00,,---,0.00,VWS V14.01,2013-09-03 14:05:00,
2013-09-03 07:10:00,63.1,34.3,27.58,North,353,0.0,0.0,34,0.00,,---,0.00,VWS V14.01,2013-09-03 14:10:00,
2013-09-03 07:15:00,63.3,33.8,27.58,North,5,0.0,0.0,33,0.00,,---,0.00,VWS V14.01,2013-09-03 14:15:00,
2013-09-03 07:20:00,63.5,33.9,27.58,ESE,105,0.0,0.0,33,0.00,,---,0.00,VWS V14.01,2013-09-03 14:20:00,
2013-09-03 07:25:00,63.5,33.9,27.58,NE,53,0.0,0.0,33,0.00,,---,0.00,VWS V14.01,2013-09-03 14:25:00,
2013-09-03 07:30:00,63.5,33.9,27.58,North,9,0.0,0.0,33,0.00,,---,0.00,VWS V14.01,2013-09-03 14:30:00,
2013-09-03 07:35:00,63.5,33.9,27.58,NE,54,0.0,0.0,33,0.00,,---,0.00,VWS V14.01,2013-09-03 14:35:00,
2013-09-03 07:40:00,63.7,34.1,27.58,North,353,0.0,0.0,33,0.00,,---,0.00,VWS V14.01,2013-09-03 14:40:00,
2013-09-03 07:45:00,63.7,34.1,27.58,NE,36,0.0,0.0,33,0.00,,---,0.00,VWS V14.01,2013-09-03 14:45:00,
2013-09-03 07:50:00,63.7,34.8,27.58,North,353,0.0,0.0,34,0.00,,---,0.00,VWS V14.01,2013-09-03 14:50:00,
2013-09-03 07:55:00,63.9,34.2,27.58,ENE,60,0.0,0.0,33,0.00,,---,0.00,VWS V14.01,2013-09-03 14:55:00,
2013-09-03 08:00:00,64.2,34.5,27.61,ENE,62,0.0,0.0,33,0.00,,---,0.00,VWS V14.01,2013-09-03 15:00:00,
2013-09-03 08:05:00,64.4,34.7,27.61,ENE,62,0.0,0.0,33,0.00,,---,0.00,VWS V14.01,2013-09-03 15:05:00,
2013-09-03 08:10:00,64.6,34.8,27.61,NNW,337,0.0,0.0,33,0.00,,---,0.00,VWS V14.01,2013-09-03 15:10:00,
2013-09-03 08:15:00,64.8,35.0,27.61,NNW,337,0.0,0.0,33,0.00,,---,0.00,VWS V14.01,2013-09-03 15:15:00,
2013-09-03 08:20:00,65.1,35.3,27.61,NNW,337,0.0,0.0,33,0.00,,---,0.00,VWS V14.01,2013-09-03 15:20:00,
2013-09-03 08:25:00,65.3,33.9,27.61,North,0,0.0,0.0,31,0.00,,---,0.00,VWS V14.01,2013-09-03 15:25:00,
2013-09-03 08:30:00,65.7,33.4,27.61,North,0,0.0,0.0,30,0.00,,---,0.00,VWS V14.01,2013-09-03 15:30:00,
2013-09-03 08:35:00,66.0,32.9,27.61,North,353,0.0,0.0,29,0.00,,---,0.00,VWS V14.01,2013-09-03 15:35:00,
2013-09-03 08:40:00,66.2,32.2,27.61,North,353,0.0,0.0,28,0.00,,---,0.00,VWS V14.01,2013-09-03 15:40:00,
2013-09-03 08:45:00,66.6,31.6,27.61,East,90,0.0,0.0,27,0.00,,---,0.00,VWS V14.01,2013-09-03 15:45:00,
2013-09-03 08:50:00,66.6,30.6,27.61,North,0,0.0,0.0,26,0.00,,---,0.00,VWS V14.01,2013-09-03 15:50:00,
2013-09-03 08:55:00,66.7,30.8,27.61,NE,47,0.0,0.0,26,0.00,,---,0.00,VWS V14.01,2013-09-03 15:55:00,
2013-09-03 09:00:00,67.1,30.1,27.61,NE,47,0.0,0.0,25,0.00,,---,0.00,VWS V14.01,2013-09-03 16:00:00,
2013-09-03 09:05:00,67.3,30.3,27.61,NE,47,0.0,0.0,25,0.00,,---,0.00,VWS V14.01,2013-09-03 16:05:00,
2013-09-03 09:10:00,67.5,29.4,27.61,NE,47,0.0,0.0,24,0.00,,---,0.00,VWS V14.01,2013-09-03 16:10:00,
2013-09-03 09:15:00,67.8,29.7,27.61,NE,47,0.0,0.0,24,0.00,,---,0.00,VWS V14.01,2013-09-03 16:15:00,
2013-09-03 09:20:00,68.4,30.2,27.61,NE,39,0.0,0.0,24,0.00,,---,0.00,VWS V14.01,2013-09-03 16:20:00,
2013-09-03 09:25:00,68.9,29.6,27.61,NNE,32,0.0,0.0,23,0.00,,---,0.00,VWS V14.01,2013-09-03 16:25:00,
2013-09-03 09:30:00,69.6,30.2,27.61,NE,56,0.0,0.0,23,0.00,,---,0.00,VWS V14.01,2013-09-03 16:30:00,
2013-09-03 09:35:00,70.2,29.6,27.61,NNE,25,3.6,3.6,22,0.00,,---,0.00,VWS V14.01,2013-09-03 16:35:00,
2013-09-03 09:40:00,70.9,26.6,27.61,North,0,3.1,3.1,19,0.00,,---,0.00,VWS V14.01,2013-09-03 16:40:00,
2013-09-03 09:45:00,70.7,26.5,27.61,NNW,341,2.7,2.7,19,0.00,,---,0.00,VWS V14.01,2013-09-03 16:45:00,
2013-09-03 09:50:00,70.5,26.3,27.61,North,0,3.6,3.6,19,0.00,,---,0.00,VWS V14.01,2013-09-03 16:50:00,
2013-09-03 09:55:00,70.5,26.3,27.61,North,0,0.0,0.0,19,0.00,,---,0.00,VWS V14.01,2013-09-03 16:55:00,
2013-09-03 10:00:00,70.7,23.8,27.61,North,353,0.0,0.0,17,0.00,,---,0.00,VWS V14.01,2013-09-03 17:00:00,
2013-09-03 10:05:00,70.7,23.8,27.61,North,2,0.0,0.0,17,0.00,,---,0.00,VWS V14.01,2013-09-03 17:05:00,
2013-09-03 10:10:00,70.5,23.6,27.61,North,353,0.0,0.0,17,0.00,,---,0.00,VWS V14.01,2013-09-03 17:10:00,
2013-09-03 10:15:00,70.3,23.5,27.61,NNW,344,0.0,0.0,17,0.00,,---,0.00,VWS V14.01,2013-09-03 17:15:00,
2013-09-03 10:20:00,70.2,23.4,27.61,North,353,0.0,0.0,17,0.00,,---,0.00,VWS V14.01,2013-09-03 17:20:00,
2013-09-03 10:25:00,70.2,23.4,27.61,North,353,0.0,0.0,17,0.00,,---,0.00,VWS V14.01,2013-09-03 17:25:00,
2013-09-03 10:30:00,70.2,23.4,27.61,North,353,0.0,0.0,17,0.00,,---,0.00,VWS V14.01,2013-09-03 17:30:00,
2013-09-03 10:35:00,70.3,23.5,27.61,North,0,0.0,0.0,17,0.00,,---,0.00,VWS V14.01,2013-09-03 17:35:00,
2013-09-03 10:40:00,70.9,23.9,27.61,NE,39,0.0,0.0,17,0.00,,---,0.00,VWS V14.01,2013-09-03 17:40:00,
2013-09-03 10:45:00,71.2,24.2,27.61,North,357,0.0,0.0,17,0.00,,---,0.00,VWS V14.01,2013-09-03 17:45:00,
2013-09-03 10:50:00,71.4,24.4,27.61,NNW,345,0.0,0.0,17,0.00,,---,0.00,VWS V14.01,2013-09-03 17:50:00,
2013-09-03 10:55:00,71.6,23.1,27.61,North,353,0.0,0.0,16,0.00,,---,0.00,VWS V14.01,2013-09-03 17:55:00,
2013-09-03 11:00:00,72.0,23.4,27.61,North,357,0.0,0.0,16,0.00,,---,0.00,VWS V14.01,2013-09-03 18:00:00,
2013-09-03 11:05:00,72.0,23.4,27.61,North,349,0.0,0.0,16,0.00,,---,0.00,VWS V14.01,2013-09-03 18:05:00,
2013-09-03 11:10:00,72.0,23.4,27.61,North,353,0.0,0.0,16,0.00,,---,0.00,VWS V14.01,2013-09-03 18:10:00,
2013-09-03 11:15:00,73.2,24.4,27.61,North,353,0.0,0.0,16,0.00,,---,0.00,VWS V14.01,2013-09-03 18:15:00,
2013-09-03 11:20:00,74.1,25.1,27.61,NNE,14,0.0,0.0,16,0.00,,---,0.00,VWS V14.01,2013-09-03 18:20:00,
2013-09-03 11:25:00,74.1,20.2,27.61,North,353,0.0,0.0,13,0.00,,---,0.00,VWS V14.01,2013-09-03 18:25:00,
2013-09-03 11:30:00,73.9,20.0,27.61,NNW,342,0.0,0.0,13,0.00,,---,0.00,VWS V14.01,2013-09-03 18:30:00,
2013-09-03 11:35:00,73.9,20.0,27.61,NNW,346,0.0,0.0,13,0.00,,---,0.00,VWS V14.01,2013-09-03 18:35:00,
2013-09-03 11:40:00,73.9,20.0,27.61,North,0,0.0,0.0,13,0.00,,---,0.00,VWS V14.01,2013-09-03 18:40:00,
2013-09-03 11:45:00,73.9,20.0,27.61,North,0,0.0,0.0,13,0.00,,---,0.00,VWS V14.01,2013-09-03 18:45:00,
2013-09-03 11:50:00,74.1,20.2,27.61,NW,321,0.0,0.0,13,0.00,,---,0.00,VWS V14.01,2013-09-03 18:50:00,
2013-09-03 11:55:00,75.0,20.9,27.61,NNW,346,0.0,0.0,13,0.00,,---,0.00,VWS V14.01,2013-09-03 18:55:00,
2013-09-03 12:00:00,76.1,21.7,27.61,NNW,343,0.0,0.0,13,0.00,,---,0.00,VWS V14.01,2013-09-03 19:00:00,
2013-09-03 12:05:00,76.3,21.9,27.61,NNW,337,0.0,0.0,13,0.00,,---,0.00,VWS V14.01,2013-09-03 19:05:00,
2013-09-03 12:10:00,76.5,22.0,27.61,North,353,0.0,0.0,13,0.00,,---,0.00,VWS V14.01,2013-09-03 19:10:00,
2013-09-03 12:15:00,76.3,21.9,27.61,North,353,0.0,0.0,13,0.00,,---,0.00,VWS V14.01,2013-09-03 19:15:00,
2013-09-03 12:20:00,76.5,22.0,27.61,NNE,19,0.0,0.0,13,0.00,,---,0.00,VWS V14.01,2013-09-03 19:20:00,
2013-09-03 12:25:00,77.0,22.4,27.61,North,8,0.0,0.0,13,0.00,,---,0.00,VWS V14.01,2013-09-03 19:25:00,
2013-09-03 12:30:00,77.9,23.1,27.61,North,5,6.3,6.3,13,0.00,,---,0.00,VWS V14.01,2013-09-03 19:30:00,
2013-09-03 12:35:00,77.9,23.1,27.61,North,353,6.3,7.6,13,0.00,,---,0.00,VWS V14.01,2013-09-03 19:35:00,
2013-09-03 12:40:00,77.2,22.6,27.61,North,353,6.3,8.1,13,0.00,,---,0.00,VWS V14.01,2013-09-03 19:40:00,
2013-09-03 12:45:00,77.0,22.4,27.61,North,350,0.0,0.0,13,0.00,,---,0.00,VWS V14.01,2013-09-03 19:45:00,
2013-09-03 12:50:00,76.8,22.3,27.61,NNW,346,0.0,0.0,13,0.00,,---,0.00,VWS V14.01,2013-09-03 19:50:00,
2013-09-03 12:55:00,76.6,22.1,27.61,North,4,0.0,0.0,13,0.00,,---,0.00,VWS V14.01,2013-09-03 19:55:00,
2013-09-03 13:00:00,76.3,21.9,27.61,North,0,0.0,0.0,13,0.00,,---,0.00,VWS V14.01,2013-09-03 20:00:00,
2013-09-03 13:05:00,76.3,21.9,27.61,North,0,0.0,0.0,13,0.00,,---,0.00,VWS V14.01,2013-09-03 20:05:00,
2013-09-03 13:10:00,76.1,21.7,27.61,NNW,346,0.0,0.0,13,0.00,,---,0.00,VWS V14.01,2013-09-03 20:10:00,
2013-09-03 13:15:00,76.1,21.7,27.64,NE,38,0.0,0.0,13,0.00,,---,0.00,VWS V14.01,2013-09-03 20:15:00,
2013-09-03 13:20:00,76.1,21.7,27.64,NNW,348,0.0,0.0,13,0.00,,---,0.00,VWS V14.01,2013-09-03 20:20:00,
2013-09-03 13:25:00,75.7,21.5,27.64,North,11,0.0,0.0,13,0.00,,---,0.00,VWS V14.01,2013-09-03 20:25:00,
2013-09-03 13:29:00,75.6,21.3,27.64,NW,307,0.0,0.0,13,0.00,,---,0.00,VWS V14.01,2013-09-03 20:29:00,
2013-09-03 13:34:00,75.6,21.3,27.64,North,0,0.0,0.0,13,0.00,,---,0.00,VWS V14.01,2013-09-03 20:34:00,
2013-09-03 13:39:00,75.6,21.3,27.64,NNW,334,0.0,0.0,13,0.00,,---,0.00,VWS V14.01,2013-09-03 20:39:00,
2013-09-03 13:44:00,75.7,21.5,27.64,NNW,343,0.0,0.0,13,0.00,,---,0.00,VWS V14.01,2013-09-03 20:44:00,
2013-09-03 13:49:00,75.9,21.6,27.64,North,1,0.0,0.0,13,0.00,,---,0.00,VWS V14.01,2013-09-03 20:49:00,
2013-09-03 13:54:00,76.3,21.9,27.64,NNW,329,0.0,0.0,13,0.00,,---,0.00,VWS V14.01,2013-09-03 20:54:00,
2013-09-03 13:59:00,76.6,22.1,27.64,North,353,0.0,0.0,13,0.00,,---,0.00,VWS V14.01,2013-09-03 20:59:00,
2013-09-03 14:04:00,77.4,22.7,27.64,North,357,0.0,0.0,13,0.00,,---,0.00,VWS V14.01,2013-09-03 21:04:00,
2013-09-03 14:09:00,77.9,23.1,27.64,North,353,0.0,0.0,13,0.00,,---,0.00,VWS V14.01,2013-09-03 21:09:00,
2013-09-03 14:14:00,78.6,23.7,27.64,NE,41,0.0,0.0,13,0.00,,---,0.00,VWS V14.01,2013-09-03 21:14:00,
2013-09-03 14:19:00,79.9,22.8,27.64,NNE,28,0.0,0.0,12,0.00,,---,0.00,VWS V14.01,2013-09-03 21:19:00,
2013-09-03 14:24:00,81.1,23.8,27.64,NNW,336,0.0,0.0,12,0.00,,---,0.00,VWS V14.01,2013-09-03 21:24:00,
2013-09-03 14:29:00,81.5,24.0,27.64,ENE,77,0.0,0.0,12,0.00,,---,0.00,VWS V14.01,2013-09-03 21:29:00,
2013-09-03 14:34:00,81.9,24.3,27.64,SE,140,0.0,0.0,12,0.00,,---,0.00,VWS V14.01,2013-09-03 21:34:00,
2013-09-03 14:39:00,81.7,24.2,27.64,SSE,159,0.0,0.0,12,0.00,,---,0.00,VWS V14.01,2013-09-03 21:39:00,
2013-09-03 14:44:00,81.7,24.2,27.64,SSE,163,0.0,0.0,12,0.00,,---,0.00,VWS V14.01,2013-09-03 21:44:00,
2013-09-03 14:49:00,82.0,24.5,27.61,SSW,193,0.0,0.0,12,0.00,,---,0.00,VWS V14.01,2013-09-03 21:49:00,
2013-09-03 14:54:00,82.6,22.8,27.61,SE,132,0.0,0.0,11,0.00,,---,0.00,VWS V14.01,2013-09-03 21:54:00,
2013-09-03 14:59:00,83.1,23.2,27.61,SSE,160,0.0,0.0,11,0.00,,---,0.00,VWS V14.01,2013-09-03 21:59:00,
2013-09-03 15:04:00,83.3,23.4,27.61,SSE,159,0.0,0.0,11,0.00,,---,0.00,VWS V14.01,2013-09-03 22:04:00,
2013-09-03 15:09:00,83.7,23.6,27.61,SSE,162,3.6,5.8,11,0.00,,---,0.00,VWS V14.01,2013-09-03 22:09:00,
2013-09-03 15:14:00,84.0,23.9,27.61,South,187,5.8,5.8,11,0.00,,---,0.00,VWS V14.01,2013-09-03 22:14:00,
2013-09-03 15:19:00,84.6,24.3,27.61,South,183,5.4,5.8,11,0.00,,---,0.00,VWS V14.01,2013-09-03 22:19:00,
2013-09-03 15:24:00,84.7,24.5,27.61,SSE,155,6.3,6.3,11,0.00,,---,0.00,VWS V14.01,2013-09-03 22:24:00,
2013-09-03 15:29:00,84.2,24.0,27.61,South,187,5.8,5.8,11,0.00,,---,0.00,VWS V14.01,2013-09-03 22:29:00,
2013-09-03 15:34:00,83.8,23.8,27.61,SSE,162,4.0,4.0,11,0.00,,---,0.00,VWS V14.01,2013-09-03 22:34:00,
2013-09-03 15:39:00,83.7,23.6,27.61,SSE,150,4.9,6.3,11,0.00,,---,0.00,VWS V14.01,2013-09-03 22:39:00,
2013-09-03 15:44:00,83.8,23.8,27.61,SSE,158,0.0,0.0,11,0.00,,---,0.00,VWS V14.01,2013-09-03 22:44:00,
2013-09-03 15:49:00,84.2,24.0,27.61,ESE,123,0.0,0.0,11,0.00,,---,0.00,VWS V14.01,2013-09-03 22:49:00,
2013-09-03 15:54:00,84.6,24.3,27.61,SSE,159,0.0,0.0,11,0.00,,---,0.00,VWS V14.01,2013-09-03 22:54:00,
2013-09-03 15:59:00,84.7,24.5,27.61,SE,134,0.0,0.0,11,0.00,,---,0.00,VWS V14.01,2013-09-03 22:59:00,
2013-09-03 16:04:00,84.7,24.5,27.61,SSW,201,0.0,0.0,11,0.00,,---,0.00,VWS V14.01,2013-09-03 23:04:00,
2013-09-03 16:09:00,84.6,24.3,27.61,South,171,0.0,0.0,11,0.00,,---,0.00,VWS V14.01,2013-09-03 23:09:00,
2013-09-03 16:14:00,84.6,24.3,27.61,SSW,198,0.0,0.0,11,0.00,,---,0.00,VWS V14.01,2013-09-03 23:14:00,
2013-09-03 16:19:00,84.6,24.3,27.61,SE,141,0.0,0.0,11,0.00,,---,0.00,VWS V14.01,2013-09-03 23:19:00,
2013-09-03 16:24:00,84.4,24.2,27.61,ESE,112,0.0,0.0,11,0.00,,---,0.00,VWS V14.01,2013-09-03 23:24:00,
2013-09-03 16:29:00,84.7,24.5,27.61,SSW,192,0.0,0.0,11,0.00,,---,0.00,VWS V14.01,2013-09-03 23:29:00,
2013-09-03 16:34:00,84.7,24.5,27.61,SSE,163,0.0,0.0,11,0.00,,---,0.00,VWS V14.01,2013-09-03 23:34:00,
2013-09-03 16:39:00,84.7,24.5,27.61,South,176,0.0,0.0,11,0.00,,---,0.00,VWS V14.01,2013-09-03 23:39:00,
2013-09-03 16:44:00,84.7,24.5,27.61,SE,137,0.0,0.0,11,0.00,,---,0.00,VWS V14.01,2013-09-03 23:44:00,
2013-09-03 16:49:00,84.2,24.0,27.61,SSE,166,0.0,0.0,11,0.00,,---,0.00,VWS V14.01,2013-09-03 23:49:00,
2013-09-03 16:54:00,83.7,23.6,27.61,SSW,193,0.0,0.0,11,0.00,,---,0.00,VWS V14.01,2013-09-03 23:54:00,
2013-09-03 16:59:00,83.3,23.4,27.61,South,178,0.0,0.0,11,0.00,,---,0.00,VWS V14.01,2013-09-03 23:59:00,
2013-09-03 17:04:00,83.1,23.2,27.61,South,170,0.0,0.0,11,0.00,,---,0.00,VWS V14.01,2013-09-04 00:04:00,
2013-09-03 17:09:00,83.1,23.2,27.61,SE,135,0.0,0.0,11,0.00,,---,0.00,VWS V14.01,2013-09-04 00:09:00,
2013-09-03 17:14:00,83.3,23.4,27.61,SSE,151,0.0,0.0,11,0.00,,---,0.00,VWS V14.01,2013-09-04 00:14:00,
2013-09-03 17:19:00,83.1,23.2,27.58,ESE,106,0.0,0.0,11,0.00,,---,0.00,VWS V14.01,2013-09-04 00:19:00,
2013-09-03 17:24:00,82.9,23.1,27.58,SE,132,0.0,0.0,11,0.00,,---,0.00,VWS V14.01,2013-09-04 00:24:00,
2013-09-03 17:29:00,83.3,23.4,27.58,SSE,153,0.0,0.0,11,0.00,,---,0.00,VWS V14.01,2013-09-04 00:29:00,
2013-09-03 17:34:00,83.5,23.5,27.58,ESE,104,0.0,0.0,11,0.00,,---,0.00,VWS V14.01,2013-09-04 00:34:00,
2013-09-03 17:39:00,84.6,24.3,27.58,ESE,116,0.0,0.0,11,0.00,,---,0.00,VWS V14.01,2013-09-04 00:39:00,
2013-09-03 17:44:00,84.9,24.6,27.58,ESE,115,0.0,0.0,11,0.00,,---,0.00,VWS V14.01,2013-09-04 00:44:00,
2013-09-03 17:49:00,85.3,24.9,27.58,SSW,192,0.0,0.0,11,0.00,,---,0.00,VWS V14.01,2013-09-04 00:49:00,
2013-09-03 17:54:00,84.6,24.3,27.58,ESE,109,0.0,0.0,11,0.00,,---,0.00,VWS V14.01,2013-09-04 00:54:00,
2013-09-03 17:59:00,84.0,23.9,27.58,SSE,154,0.0,0.0,11,0.00,,---,0.00,VWS V14.01,2013-09-04 00:59:00,
2013-09-03 18:04:00,83.7,23.6,27.58,SSE,157,0.0,0.0,11,0.00,,---,0.00,VWS V14.01,2013-09-04 01:04:00,
2013-09-03 18:09:00,83.7,23.6,27.58,East,101,0.0,0.0,11,0.00,,---,0.00,VWS V14.01,2013-09-04 01:09:00,
2013-09-03 18:14:00,83.8,23.8,27.58,East,97,0.0,0.0,11,0.00,,---,0.00,VWS V14.01,2013-09-04 01:14:00,
2013-09-03 18:19:00,84.0,23.9,27.58,NE,45,0.0,0.0,11,0.00,,---,0.00,VWS V14.01,2013-09-04 01:19:00,
2013-09-03 18:24:00,84.2,24.0,27.58,East,92,0.0,0.0,11,0.00,,---,0.00,VWS V14.01,2013-09-04 01:24:00,
2013-09-03 18:29:00,84.0,23.9,27.58,East,89,0.0,0.0,11,0.00,,---,0.00,VWS V14.01,2013-09-04 01:29:00,
2013-09-03 18:34:00,83.8,23.8,27.58,East,97,0.0,0.0,11,0.00,,---,0.00,VWS V14.01,2013-09-04 01:34:00,
2013-09-03 18:39:00,83.5,23.5,27.58,NE,47,0.0,0.0,11,0.00,,---,0.00,VWS V14.01,2013-09-04 01:39:00,
2013-09-03 18:44:00,82.9,23.1,27.58,East,91,0.0,0.0,11,0.00,,---,0.00,VWS V14.01,2013-09-04 01:44:00,
2013-09-03 18:49:00,82.2,24.6,27.58,East,95,0.0,0.0,12,0.00,,---,0.00,VWS V14.01,2013-09-04 01:49:00,
2013-09-03 18:54:00,81.3,23.9,27.58,ESE,105,0.0,0.0,12,0.00,,---,0.00,VWS V14.01,2013-09-04 01:54:00,
2013-09-03 18:59:00,80.2,23.1,27.58,SE,129,0.0,0.0,12,0.00,,---,0.00,VWS V14.01,2013-09-04 01:59:00,
2013-09-03 19:04:00,79.7,22.6,27.58,SSE,156,0.0,0.0,12,0.00,,---,0.00,VWS V14.01,2013-09-04 02:04:00,
2013-09-03 19:09:00,79.5,22.5,27.58,SSE,149,0.0,0.0,12,0.00,,---,0.00,VWS V14.01,2013-09-04 02:09:00,
2013-09-03 19:14:00,79.2,22.2,27.58,SSE,155,0.0,0.0,12,0.00,,---,0.00,VWS V14.01,2013-09-04 02:14:00,
2013-09-03 19:19:00,78.8,22.0,27.58,East,93,0.0,0.0,12,0.00,,---,0.00,VWS V14.01,2013-09-04 02:19:00,
2013-09-03 19:24:00,78.4,23.6,27.58,East,88,0.0,0.0,13,0.00,,---,0.00,VWS V14.01,2013-09-04 02:24:00,
2013-09-03 19:29:00,78.1,23.3,27.58,East,88,0.0,0.0,13,0.00,,---,0.00,VWS V14.01,2013-09-04 02:29:00,
2013-09-03 19:34:00,77.5,22.9,27.58,East,88,0.0,0.0,13,0.00,,---,0.00,VWS V14.01,2013-09-04 02:34:00,
2013-09-03 19:39:00,77.4,22.7,27.58,NE,48,0.0,0.0,13,0.00,,---,0.00,VWS V14.01,2013-09-04 02:39:00,
2013-09-03 19:44:00,77.2,22.6,27.58,NE,48,0.0,0.0,13,0.00,,---,0.00,VWS V14.01,2013-09-04 02:44:00,
2013-09-03 19:49:00,77.2,22.6,27.61,East,83,0.0,0.0,13,0.00,,---,0.00,VWS V14.01,2013-09-04 02:49:00,
2013-09-03 19:54:00,77.2,22.6,27.61,ENE,75,0.0,0.0,13,0.00,,---,0.00,VWS V14.01,2013-09-04 02:54:00,
2013-09-03 19:59:00,77.2,22.6,27.61,ENE,71,0.0,0.0,13,0.00,,---,0.00,VWS V14.01,2013-09-04 02:59:00,
2013-09-03 20:04:00,77.2,22.6,27.61,ENE,71,0.0,0.0,13,0.00,,---,0.00,VWS V14.01,2013-09-04 03:04:00,
2013-09-03 20:09:00,76.8,22.3,27.61,NNW,341,0.0,0.0,13,0.00,,---,0.00,VWS V14.01,2013-09-04 03:09:00,
2013-09-03 20:14:00,76.6,22.1,27.61,NNW,345,2.7,3.6,13,0.00,,---,0.00,VWS V14.01,2013-09-04 03:14:00,
2013-09-03 20:19:00,76.3,21.9,27.61,NNE,14,2.2,2.2,13,0.00,,---,0.00,VWS V14.01,2013-09-04 03:19:00,
2013-09-03 20:24:00,76.1,21.7,27.61,North,350,0.0,3.6,13,0.00,,---,0.00,VWS V14.01,2013-09-04 03:24:00,
2013-09-03 20:29:00,75.9,21.6,27.61,North,350,0.0,0.0,13,0.00,,---,0.00,VWS V14.01,2013-09-04 03:29:00,
2013-09-03 20:34:00,75.7,21.5,27.61,North,350,0.0,0.0,13,0.00,,---,0.00,VWS V14.01,2013-09-04 03:34:00,
2013-09-03 20:39:00,75.6,21.3,27.61,North,353,0.0,0.0,13,0.00,,---,0.00,VWS V14.01,2013-09-04 03:39:00,
2013-09-03 20:44:00,75.4,21.2,27.61,North,350,0.0,0.0,13,0.00,,---,0.00,VWS V14.01,2013-09-04 03:44:00,
2013-09-03 20:49:00,75.2,21.0,27.61,North,350,0.0,0.0,13,0.00,,---,0.00,VWS V14.01,2013-09-04 03:49:00,
2013-09-03 20:54:00,74.8,20.7,27.61,North,349,0.0,0.0,13,0.00,,---,0.00,VWS V14.01,2013-09-04 03:54:00,
2013-09-03 20:59:00,74.7,20.6,27.61,North,349,0.0,0.0,13,0.00,,---,0.00,VWS V14.01,2013-09-04 03:59:00,
2013-09-03 21:01:00,74.7,20.6,27.61,North,353,0.0,0.0,13,0.00,,---,0.00,VWS V14.01,2013-09-04 04:01:00,
2013-09-03 21:06:00,74.1,20.2,27.61,North,353,0.0,0.0,13,0.00,,---,0.00,VWS V14.01,2013-09-04 04:06:00,
2013-09-03 21:11:00,73.9,20.0,27.61,NNE,18,0.0,0.0,13,0.00,,---,0.00,VWS V14.01,2013-09-04 04:11:00,
2013-09-03 21:16:00,73.8,19.9,27.61,North,0,0.0,0.0,13,0.00,,---,0.00,VWS V14.01,2013-09-04 04:16:00,
2013-09-03 21:21:00,73.6,19.8,27.61,North,353,0.0,0.0,13,0.00,,---,0.00,VWS V14.01,2013-09-04 04:21:00,
2013-09-03 21:26:00,73.6,19.8,27.61,NNW,341,0.0,0.0,13,0.00,,---,0.00,VWS V14.01,2013-09-04 04:26:00,
2013-09-03 21:31:00,73.6,19.8,27.61,North,353,0.0,0.0,13,0.00,,---,0.00,VWS V14.01,2013-09-04 04:31:00,
2013-09-03 21:36:00,73.4,19.6,27.61,North,353,0.0,0.0,13,0.00,,---,0.00,VWS V14.01,2013-09-04 04:36:00,
2013-09-03 21:41:00,73.2,21.2,27.61,North,353,0.0,0.0,14,0.00,,---,0.00,VWS V14.01,2013-09-04 04:41:00,
2013-09-03 21:46:00,72.7,20.8,27.61,NNW,334,0.0,0.0,14,0.00,,---,0.00,VWS V14.01,2013-09-04 04:46:00,
2013-09-03 21:51:00,72.3,20.5,27.61,NNW,334,0.0,0.0,14,0.00,,---,0.00,VWS V14.01,2013-09-04 04:51:00,
2013-09-03 21:56:00,72.0,20.2,27.61,NNW,334,0.0,0.0,14,0.00,,---,0.00,VWS V14.01,2013-09-04 04:56:00,
2013-09-03 22:01:00,71.4,19.8,27.61,NNW,334,0.0,0.0,14,0.00,,---,0.00,VWS V14.01,2013-09-04 05:01:00,
2013-09-03 22:06:00,71.2,19.6,27.61,NNW,334,0.0,0.0,14,0.00,,---,0.00,VWS V14.01,2013-09-04 05:06:00,
2013-09-03 22:11:00,71.2,19.6,27.61,NNW,334,0.0,0.0,14,0.00,,---,0.00,VWS V14.01,2013-09-04 05:11:00,
2013-09-03 22:16:00,71.4,19.8,27.61,NNW,334,0.0,0.0,14,0.00,,---,0.00,VWS V14.01,2013-09-04 05:16:00,
2013-09-03 22:21:00,71.1,19.5,27.61,NNW,334,0.0,0.0,14,0.00,,---,0.00,VWS V14.01,2013-09-04 05:21:00,
2013-09-03 22:26:00,70.9,19.4,27.61,NNE,25,0.0,0.0,14,0.00,,---,0.00,VWS V14.01,2013-09-04 05:26:00,
2013-09-03 22:31:00,71.2,19.6,27.61,NNE,26,0.0,0.0,14,0.00,,---,0.00,VWS V14.01,2013-09-04 05:31:00,
2013-09-03 22:36:00,71.6,19.9,27.61,North,357,0.0,0.0,14,0.00,,---,0.00,VWS V14.01,2013-09-04 05:36:00,
2013-09-03 22:41:00,71.8,20.1,27.61,NNE,33,0.0,0.0,14,0.00,,---,0.00,VWS V14.01,2013-09-04 05:41:00,
2013-09-03 22:46:00,71.8,20.1,27.61,NNE,29,0.0,0.0,14,0.00,,---,0.00,VWS V14.01,2013-09-04 05:46:00,
2013-09-03 22:51:00,71.4,19.8,27.61,North,357,0.0,0.0,14,0.00,,---,0.00,VWS V14.01,2013-09-04 05:51:00,
2013-09-03 22:56:00,71.2,19.6,27.61,NE,38,0.0,0.0,14,0.00,,---,0.00,VWS V14.01,2013-09-04 05:56:00,
2013-09-03 23:01:00,71.1,19.5,27.61,NE,34,0.0,0.0,14,0.00,,---,0.00,VWS V14.01,2013-09-04 06:01:00,
2013-09-03 23:06:00,70.7,19.2,27.61,NE,34,0.0,0.0,14,0.00,,---,0.00,VWS V14.01,2013-09-04 06:06:00,
2013-09-03 23:11:00,70.2,18.8,27.61,NE,34,0.0,0.0,14,0.00,,---,0.00,VWS V14.01,2013-09-04 06:11:00,
2013-09-03 23:16:00,70.0,23.2,27.61,NNE,25,0.0,0.0,17,0.00,,---,0.00,VWS V14.01,2013-09-04 06:16:00,
2013-09-03 23:21:00,70.0,23.2,27.61,NNE,19,0.0,0.0,17,0.00,,---,0.00,VWS V14.01,2013-09-04 06:21:00,
2013-09-03 23:26:00,70.2,23.4,27.61,North,353,0.0,0.0,17,0.00,,---,0.00,VWS V14.01,2013-09-04 06:26:00,
2013-09-03 23:31:00,69.8,23.1,27.61,NNW,339,0.0,0.0,17,0.00,,---,0.00,VWS V14.01,2013-09-04 06:31:00,
2013-09-03 23:36:00,69.3,26.5,27.61,North,353,0.0,0.0,20,0.00,,---,0.00,VWS V14.01,2013-09-04 06:36:00,
2013-09-03 23:41:00,68.5,28.2,27.61,NNW,346,0.0,0.0,22,0.00,,---,0.00,VWS V14.01,2013-09-04 06:41:00,
2013-09-03 23:45:00,68.2,27.9,27.61,North,0,0.0,0.0,22,0.00,,---,0.00,VWS V14.01,2013-09-04 06:45:00,
2013-09-03 23:50:00,68.0,28.9,27.61,NNW,340,0.0,0.0,23,0.00,,---,0.00,VWS V14.01,2013-09-04 06:50:00,
2013-09-03 23:55:00,67.8,28.7,27.61,NNW,343,0.0,0.0,23,0.00,,---,0.00,VWS V14.01,2013-09-04 06:55:00,